This is the latest recevied weather packets stored in our database for station/object KK7RJD. If no packets are shown the sender has not sent any weather packets the latest 10 day(s).
| Time | Temp. | Humidity | Pressure | Rain* | Wind** | Luminosity | Snow |
|---|---|---|---|---|---|---|---|
| 1777828901 | 18.89° C | 35% | 1014.6 hPa | 0 mm | - | 822 W/m² | - |
| 1777828597 | 18.33° C | 34% | 1014.8 hPa | 0 mm | - | 812 W/m² | - |
| 1777828295 | 18.33° C | 34% | 1014.9 hPa | 0 mm | - | 804 W/m² | - |
| 1777827992 | 17.78° C | 36% | 1014.8 hPa | 0 mm | - | 795 W/m² | - |
| 1777827688 | 17.78° C | 36% | 1014.9 hPa | 0 mm | - | 785 W/m² | - |
| 1777827386 | 17.78° C | 37% | 1014.9 hPa | 0 mm | - | 774 W/m² | - |
| 1777827082 | 17.22° C | 38% | 1014.9 hPa | 0 mm | - | 762 W/m² | - |
| 1777826779 | 17.22° C | 40% | 1015 hPa | 0 mm | - | 753 W/m² | - |
| 1777826476 | 17.78° C | 40% | 1015.1 hPa | 0 mm | - | 740 W/m² | - |
| 1777826172 | 17.22° C | 40% | 1015.2 hPa | 0 mm | - | 727 W/m² | - |
| 1777825870 | 17.22° C | 43% | 1015.3 hPa | 0 mm | - | 712 W/m² | - |
| 1777825567 | 17.78° C | 41% | 1015.3 hPa | 0 mm | - | 698 W/m² | - |
| 1777825265 | 17.22° C | 40% | 1015.3 hPa | 0 mm | - | 683 W/m² | - |
| 1777824961 | 17.22° C | 40% | 1015.4 hPa | 0 mm | - | 664 W/m² | - |
| 1777824657 | 16.67° C | 42% | 1015.3 hPa | 0 mm | - | 650 W/m² | - |
| 1777824355 | 16.67° C | 41% | 1015.4 hPa | 0 mm | - | 630 W/m² | - |
| 1777824050 | 16.11° C | 43% | 1015.4 hPa | 0 mm | - | 613 W/m² | - |
| 1777823747 | 15.56° C | 43% | 1015.7 hPa | 0 mm | - | 594 W/m² | - |
| 1777823444 | 15° C | 44% | 1015.7 hPa | 0 mm | - | 574 W/m² | - |
| 1777823141 | 15° C | 45% | 1015.7 hPa | 0 mm | - | 560 W/m² | - |
| 1777822838 | 14.44° C | 47% | 1015.6 hPa | 0 mm | - | 554 W/m² | - |
| 1777822537 | 13.89° C | 47% | 1015.9 hPa | 0 mm | - | 541 W/m² | - |
| 1777822234 | 13.33° C | 49% | 1015.7 hPa | 0 mm | - | 588 W/m² | - |
| 1777821931 | 13.33° C | 50% | 1015.9 hPa | 0 mm | - | 285 W/m² | - |
| 1777821629 | 13.33° C | 50% | 1015.8 hPa | 0 mm | - | 217 W/m² | - |
* Rain latest hour (hover to see other rain measurements)
** Current wind speed in m/s (hover to see current wind gust speed)